Time,TemperatureF,DewpointF,PressureIn,WindDirection,WindDirectionDegrees,WindSpeedMPH,WindSpeedGustMPH,Humidity,HourlyPrecipIn,Conditions,Clouds,dailyrainin,SolarRadiationWatts/m^2,SoftwareType,DateUTC
2013-03-14 00:02:00,56.0,38.0,-100.00,SE,129,7.0,11.0,51,0.00,,,0.00,0.000000,,2013-03-14 05:02:00,
2013-03-14 00:33:00,56.0,36.0,-100.00,SE,139,6.0,12.0,46,0.00,,,0.00,0.000000,,2013-03-14 05:33:00,
2013-03-14 00:42:00,56.0,36.0,-100.00,SE,139,6.0,12.0,46,0.00,,,0.00,0.000000,,2013-03-14 05:42:00,
2013-03-14 00:53:00,56.0,36.0,-100.00,SE,139,6.0,12.0,46,0.00,,,0.00,0.000000,,2013-03-14 05:53:00,
2013-03-14 01:02:00,56.0,36.0,-100.00,SE,139,6.0,12.0,46,0.00,,,0.00,0.000000,,2013-03-14 06:02:00,
2013-03-14 01:33:00,55.0,36.0,-100.00,SE,130,7.0,10.0,49,0.00,,,0.00,0.000000,,2013-03-14 06:33:00,
2013-03-14 01:42:00,55.0,36.0,-100.00,SE,130,7.0,10.0,49,0.00,,,0.00,0.000000,,2013-03-14 06:42:00,
2013-03-14 01:52:00,55.0,36.0,-100.00,SE,130,7.0,10.0,49,0.00,,,0.00,0.000000,,2013-03-14 06:52:00,
2013-03-14 02:02:00,55.0,36.0,-100.00,SE,130,7.0,10.0,49,0.00,,,0.00,0.000000,,2013-03-14 07:02:00,
2013-03-14 02:32:00,54.0,35.0,-100.00,SE,126,7.0,10.0,49,0.00,,,0.00,0.000000,,2013-03-14 07:32:00,
2013-03-14 02:43:00,54.0,35.0,-100.00,SE,126,7.0,10.0,49,0.00,,,0.00,0.000000,,2013-03-14 07:43:00,
2013-03-14 02:52:00,54.0,35.0,-100.00,SE,126,7.0,10.0,49,0.00,,,0.00,0.000000,,2013-03-14 07:52:00,
2013-03-14 03:02:00,54.0,35.0,-100.00,SE,126,7.0,10.0,49,0.00,,,0.00,0.000000,,2013-03-14 08:02:00,
2013-03-14 03:32:00,54.0,35.0,-100.00,ESE,123,8.0,13.0,49,0.00,,,0.00,0.000000,,2013-03-14 08:32:00,
2013-03-14 03:42:00,54.0,35.0,-100.00,ESE,123,8.0,13.0,49,0.00,,,0.00,0.000000,,2013-03-14 08:42:00,
2013-03-14 03:52:00,54.0,35.0,-100.00,ESE,123,8.0,13.0,49,0.00,,,0.00,0.000000,,2013-03-14 08:52:00,
2013-03-14 04:01:00,54.0,35.0,-100.00,ESE,123,8.0,13.0,49,0.00,,,0.00,0.000000,,2013-03-14 09:01:00,
2013-03-14 04:32:00,53.0,37.0,-100.00,SE,128,7.0,11.0,55,0.00,,,0.00,0.000000,,2013-03-14 09:32:00,
2013-03-14 04:42:00,53.0,37.0,-100.00,SE,128,7.0,11.0,55,0.00,,,0.00,0.000000,,2013-03-14 09:42:00,
2013-03-14 04:52:00,53.0,37.0,-100.00,SE,128,7.0,11.0,55,0.00,,,0.00,0.000000,,2013-03-14 09:52:00,
2013-03-14 05:02:00,53.0,37.0,-100.00,SE,128,7.0,11.0,55,0.00,,,0.00,0.000000,,2013-03-14 10:02:00,
2013-03-14 05:32:00,51.0,37.0,-100.00,SE,126,6.0,10.0,58,0.00,,,0.00,0.000000,,2013-03-14 10:32:00,
2013-03-14 05:42:00,51.0,37.0,-100.00,SE,126,6.0,10.0,58,0.00,,,0.00,0.000000,,2013-03-14 10:42:00,
2013-03-14 05:52:00,51.0,37.0,-100.00,SE,126,6.0,10.0,58,0.00,,,0.00,0.000000,,2013-03-14 10:52:00,
2013-03-14 06:02:00,51.0,37.0,-100.00,SE,126,6.0,10.0,58,0.00,,,0.00,0.000000,,2013-03-14 11:02:00,
2013-03-14 06:33:00,49.0,39.0,-100.00,SE,129,6.0,8.0,69,0.00,,,0.00,0.000000,,2013-03-14 11:33:00,
2013-03-14 06:42:00,49.0,39.0,-100.00,SE,129,6.0,8.0,69,0.00,,,0.00,0.000000,,2013-03-14 11:42:00,
2013-03-14 06:53:00,49.0,39.0,-100.00,SE,129,6.0,8.0,69,0.00,,,0.00,0.000000,,2013-03-14 11:53:00,
2013-03-14 07:02:00,49.0,39.0,-100.00,SE,129,6.0,8.0,69,0.00,,,0.00,0.000000,,2013-03-14 12:02:00,
2013-03-14 07:33:00,49.0,37.0,-100.00,SE,146,7.0,9.0,63,0.00,,,0.00,0.000000,,2013-03-14 12:33:00,
2013-03-14 07:43:00,49.0,37.0,-100.00,SE,146,7.0,9.0,63,0.00,,,0.00,0.000000,,2013-03-14 12:43:00,
2013-03-14 07:52:00,49.0,37.0,-100.00,SE,146,7.0,9.0,63,0.00,,,0.00,0.000000,,2013-03-14 12:52:00,
2013-03-14 08:02:00,49.0,37.0,-100.00,SE,146,7.0,9.0,63,0.00,,,0.00,0.000000,,2013-03-14 13:02:00,
2013-03-14 08:32:00,48.0,36.0,-100.00,SE,140,5.0,9.0,62,0.00,,,0.00,6.000000,,2013-03-14 13:32:00,
2013-03-14 08:43:00,48.0,36.0,-100.00,SE,140,5.0,9.0,62,0.00,,,0.00,6.000000,,2013-03-14 13:43:00,
2013-03-14 08:52:00,48.0,36.0,-100.00,SE,140,5.0,9.0,62,0.00,,,0.00,6.000000,,2013-03-14 13:52:00,
2013-03-14 09:02:00,48.0,36.0,-100.00,SE,140,5.0,9.0,62,0.00,,,0.00,6.000000,,2013-03-14 14:02:00,
2013-03-14 09:32:00,51.0,39.0,-100.00,ESE,118,6.0,8.0,64,0.00,,,0.00,156.000000,,2013-03-14 14:32:00,
2013-03-14 09:42:00,51.0,39.0,-100.00,ESE,118,6.0,8.0,64,0.00,,,0.00,156.000000,,2013-03-14 14:42:00,
2013-03-14 09:53:00,51.0,39.0,-100.00,ESE,118,6.0,8.0,64,0.00,,,0.00,156.000000,,2013-03-14 14:53:00,
2013-03-14 10:02:00,51.0,39.0,-100.00,ESE,118,6.0,8.0,64,0.00,,,0.00,156.000000,,2013-03-14 15:02:00,
2013-03-14 10:33:00,59.0,40.0,-100.00,SSE,153,7.0,12.0,49,0.00,,,0.00,409.000000,,2013-03-14 15:33:00,
2013-03-14 10:43:00,59.0,40.0,-100.00,SSE,153,7.0,12.0,49,0.00,,,0.00,409.000000,,2013-03-14 15:43:00,
2013-03-14 10:52:00,59.0,40.0,-100.00,SSE,153,7.0,12.0,49,0.00,,,0.00,409.000000,,2013-03-14 15:52:00,
2013-03-14 11:03:00,59.0,40.0,-100.00,SSE,153,7.0,12.0,49,0.00,,,0.00,409.000000,,2013-03-14 16:03:00,
2013-03-14 11:33:00,69.0,39.0,-100.00,SSW,201,9.0,17.0,34,0.00,,,0.00,654.000000,,2013-03-14 16:33:00,
2013-03-14 11:42:00,69.0,39.0,-100.00,SSW,201,9.0,17.0,34,0.00,,,0.00,654.000000,,2013-03-14 16:42:00,
2013-03-14 11:52:00,69.0,39.0,-100.00,SSW,201,9.0,17.0,34,0.00,,,0.00,654.000000,,2013-03-14 16:52:00,
2013-03-14 12:02:00,69.0,39.0,-100.00,SSW,201,9.0,17.0,34,0.00,,,0.00,654.000000,,2013-03-14 17:02:00,
2013-03-14 12:33:00,72.0,37.0,-100.00,South,191,10.0,18.0,28,0.00,,,0.00,849.000000,,2013-03-14 17:33:00,
2013-03-14 12:42:00,72.0,37.0,-100.00,South,191,10.0,18.0,28,0.00,,,0.00,849.000000,,2013-03-14 17:42:00,
2013-03-14 12:52:00,72.0,37.0,-100.00,South,191,10.0,18.0,28,0.00,,,0.00,849.000000,,2013-03-14 17:52:00,
2013-03-14 13:03:00,72.0,37.0,-100.00,South,191,10.0,18.0,28,0.00,,,0.00,849.000000,,2013-03-14 18:03:00,
2013-03-14 13:33:00,75.0,37.0,-100.00,South,180,11.0,19.0,25,0.00,,,0.00,981.000000,,2013-03-14 18:33:00,
2013-03-14 13:43:00,75.0,37.0,-100.00,South,180,11.0,19.0,25,0.00,,,0.00,981.000000,,2013-03-14 18:43:00,
2013-03-14 13:52:00,75.0,37.0,-100.00,South,180,11.0,19.0,25,0.00,,,0.00,981.000000,,2013-03-14 18:52:00,
2013-03-14 14:03:00,75.0,37.0,-100.00,South,180,11.0,19.0,25,0.00,,,0.00,981.000000,,2013-03-14 19:03:00,
2013-03-14 15:32:00,79.0,38.0,-100.00,South,181,12.0,18.0,23,-99.99,,,0.00,989.000000,,2013-03-14 20:32:00,
2013-03-14 15:42:00,79.0,38.0,-100.00,South,181,12.0,18.0,23,-99.99,,,0.00,989.000000,,2013-03-14 20:42:00,
2013-03-14 15:52:00,79.0,38.0,-100.00,South,181,12.0,18.0,23,-99.99,,,0.00,989.000000,,2013-03-14 20:52:00,
2013-03-14 16:02:00,79.0,38.0,-100.00,South,181,12.0,18.0,23,-99.99,,,0.00,989.000000,,2013-03-14 21:02:00,
2013-03-14 16:33:00,80.0,38.0,-100.00,South,190,10.0,19.0,22,0.00,,,0.00,882.000000,,2013-03-14 21:33:00,
2013-03-14 16:43:00,80.0,38.0,-100.00,South,190,10.0,19.0,22,0.00,,,0.00,882.000000,,2013-03-14 21:43:00,
2013-03-14 16:53:00,80.0,38.0,-100.00,South,190,10.0,19.0,22,0.00,,,0.00,882.000000,,2013-03-14 21:53:00,
2013-03-14 17:03:00,80.0,38.0,-100.00,South,190,10.0,19.0,22,0.00,,,0.00,882.000000,,2013-03-14 22:03:00,
2013-03-14 17:33:00,80.0,37.0,-100.00,South,177,11.0,21.0,21,0.00,,,0.00,712.000000,,2013-03-14 22:33:00,
2013-03-14 17:42:00,80.0,37.0,-100.00,South,177,11.0,21.0,21,0.00,,,0.00,712.000000,,2013-03-14 22:42:00,
2013-03-14 17:52:00,80.0,37.0,-100.00,South,177,11.0,21.0,21,0.00,,,0.00,712.000000,,2013-03-14 22:52:00,
2013-03-14 18:02:00,80.0,37.0,-100.00,South,177,11.0,21.0,21,0.00,,,0.00,712.000000,,2013-03-14 23:02:00,
2013-03-14 18:33:00,80.0,37.0,-100.00,South,179,10.0,19.0,21,0.00,,,0.00,469.000000,,2013-03-14 23:33:00,
2013-03-14 18:43:00,80.0,37.0,-100.00,South,179,10.0,19.0,21,0.00,,,0.00,469.000000,,2013-03-14 23:43:00,
2013-03-14 18:54:00,80.0,37.0,-100.00,South,179,10.0,19.0,21,0.00,,,0.00,469.000000,,2013-03-14 23:54:00,
2013-03-14 19:02:00,80.0,37.0,-100.00,South,179,10.0,19.0,21,0.00,,,0.00,469.000000,,2013-03-15 00:02:00,
2013-03-14 19:32:00,75.0,36.0,-100.00,South,175,8.0,16.0,24,0.00,,,0.00,187.000000,,2013-03-15 00:32:00,
2013-03-14 19:43:00,75.0,36.0,-100.00,South,175,8.0,16.0,24,0.00,,,0.00,187.000000,,2013-03-15 00:43:00,
2013-03-14 19:52:00,75.0,36.0,-100.00,South,175,8.0,16.0,24,0.00,,,0.00,187.000000,,2013-03-15 00:52:00,
2013-03-14 20:02:00,75.0,36.0,-100.00,South,175,8.0,16.0,24,0.00,,,0.00,187.000000,,2013-03-15 01:02:00,
2013-03-14 20:33:00,70.0,39.0,-100.00,SSE,167,4.0,11.0,32,0.00,,,0.00,13.000000,,2013-03-15 01:33:00,
2013-03-14 20:43:00,70.0,39.0,-100.00,SSE,167,4.0,11.0,32,0.00,,,0.00,13.000000,,2013-03-15 01:43:00,
2013-03-14 20:52:00,70.0,39.0,-100.00,SSE,167,4.0,11.0,32,0.00,,,0.00,13.000000,,2013-03-15 01:52:00,
2013-03-14 21:02:00,70.0,39.0,-100.00,SSE,167,4.0,11.0,32,0.00,,,0.00,13.000000,,2013-03-15 02:02:00,
2013-03-14 21:32:00,68.0,40.0,-100.00,SSE,159,5.0,7.0,36,0.00,,,0.00,0.000000,,2013-03-15 02:32:00,
2013-03-14 21:42:00,68.0,40.0,-100.00,SSE,159,5.0,7.0,36,0.00,,,0.00,0.000000,,2013-03-15 02:42:00,
2013-03-14 21:52:00,68.0,40.0,-100.00,SSE,159,5.0,7.0,36,0.00,,,0.00,0.000000,,2013-03-15 02:52:00,
2013-03-14 22:02:00,68.0,40.0,-100.00,SSE,159,5.0,7.0,36,0.00,,,0.00,0.000000,,2013-03-15 03:02:00,
2013-03-14 22:33:00,66.0,40.0,-100.00,SSE,157,5.0,10.0,39,0.00,,,0.00,0.000000,,2013-03-15 03:33:00,
2013-03-14 22:43:00,66.0,40.0,-100.00,SSE,157,5.0,10.0,39,0.00,,,0.00,0.000000,,2013-03-15 03:43:00,
2013-03-14 22:53:00,66.0,40.0,-100.00,SSE,157,5.0,10.0,39,0.00,,,0.00,0.000000,,2013-03-15 03:53:00,
2013-03-14 23:03:00,66.0,40.0,-100.00,SSE,157,5.0,10.0,39,0.00,,,0.00,0.000000,,2013-03-15 04:03:00,
2013-03-14 23:33:00,64.0,41.0,-100.00,SSE,168,5.0,12.0,43,0.00,,,0.00,0.000000,,2013-03-15 04:33:00,
2013-03-14 23:43:00,64.0,41.0,-100.00,SSE,168,5.0,12.0,43,0.00,,,0.00,0.000000,,2013-03-15 04:43:00,
2013-03-14 23:53:00,64.0,41.0,-100.00,SSE,168,5.0,12.0,43,0.00,,,0.00,0.000000,,2013-03-15 04:53:00,